Location: Bailen
(14.1842°N, 120.7958°E)
Time: 17:09:45
(UTC+00:00)

Yuri Rocket - Pass Details

Date: 12 January 2026
Orbit: 567 x 1898 km, 28.2° (Epoch: 16 February)

Event Time Altitude Azimuth Distance (km) Brightness Sun altitude
Exits shadow 21:27:10 17° 323° (NW) 1,446 4.5 -13.8°
Maximum altitude 21:29:48 35° 22° (NNE) 917 3.9 -13.2°
Drops below altitude 10° 21:33:49 10° 89° (E) 1,951 6.8 -12.3°
Sets 21:36:26 0° 98° (E) 2,968 8.4 -11.7°
